Location: Gwatt
(46.7204°N, 7.6223°E)
Time: 21:36:45
(UTC+00:00)

deb Explorer IX - All Passes

Search period start: 21 January 2021 00:00
Search period end: 31 January 2021 00:00
Orbit: 536 x 1104 km, 38.8° (Epoch: 21 January)

Date Brightness Start Highest point End Pass type
(mag) Time Alt. Az. Time Alt. Az. Time Alt. Az.
21 Jan - 17:36:26 10° SSW 17:40:30 19° SSE 17:44:12 10° ESE visible
21 Jan - 19:21:44 10° SW 19:26:44 32° S 19:31:04 10° ESE visible
21 Jan - 21:08:27 10° WSW 21:12:58 30° S 21:16:56 10° SE visible
21 Jan - 22:56:14 10° WSW 22:58:49 15° SSW 23:01:15 10° S night (unlit)
22 Jan - 17:12:30 10° SSW 17:16:49 19° SSE 17:20:44 10° ESE visible
22 Jan - 18:57:52 10° SW 19:03:05 33° S 19:07:36 10° ESE visible
22 Jan - 20:44:39 10° WSW 20:49:21 31° S 20:53:28 10° SE visible
22 Jan - 22:32:26 10° WSW 22:35:13 15° SSW 22:37:49 10° S night (unlit)
23 Jan - 16:48:34 10° SSW 16:53:07 20° SSE 16:57:15 10° ESE visible
23 Jan - 18:34:00 10° SW 18:39:25 34° S 18:44:07 10° ESE visible
23 Jan - 20:20:49 10° WSW 20:25:44 32° S 20:29:59 10° SE visible
23 Jan - 22:08:36 10° WSW 22:11:36 16° SSW 22:14:23 10° S night (unlit)
24 Jan - 16:24:37 10° SSW 16:29:23 21° SSE 16:33:43 10° ESE daylight
24 Jan - 18:10:06 10° SW 18:15:43 35° S 18:20:36 10° ESE visible
24 Jan - 19:56:58 10° WSW 20:02:04 33° S 20:06:30 10° SE visible
24 Jan - 21:44:45 10° WSW 21:47:59 17° SSW 21:50:57 10° SSE night (unlit)
25 Jan - 16:00:41 10° SSW 16:05:39 22° SSE 16:10:12 10° ESE daylight
25 Jan - 17:46:12 10° SW 17:52:01 36° S 17:57:05 10° ESE visible
25 Jan - 19:33:05 10° WSW 19:38:24 34° S 19:43:00 10° SE visible
25 Jan - 21:20:53 10° WSW 21:24:21 18° SSW 21:27:31 10° SSE visible
26 Jan - 15:36:44 10° SSW 15:41:53 22° SSE 15:46:37 10° ESE daylight
26 Jan - 17:22:17 10° WSW 17:28:17 37° S 17:33:32 10° ESE visible
26 Jan - 19:09:10 10° WSW 19:14:43 36° S 19:19:30 10° SE visible
26 Jan - 20:56:59 10° WSW 21:00:41 18° SSW 21:04:03 10° SSE visible
27 Jan - 15:12:48 10° SSW 15:18:06 23° SSE 15:23:01 10° ESE daylight
27 Jan - 16:58:22 10° WSW 17:04:32 38° S 17:09:57 10° ESE visible
27 Jan - 18:45:16 10° WSW 18:51:01 37° S 18:55:58 10° SE visible
27 Jan - 20:33:05 10° WSW 20:37:01 19° SSW 20:40:35 10° SSE visible
28 Jan - 14:48:52 10° SSW 14:54:19 24° SSE 14:59:23 10° ESE daylight
28 Jan - 16:34:26 10° WSW 16:40:45 39° S 16:46:22 10° ESE daylight
28 Jan - 18:21:21 10° WSW 18:27:17 37° S 18:32:25 10° SE visible
28 Jan - 20:09:09 10° WSW 20:13:20 20° SSW 20:17:06 10° SSE visible
29 Jan - 14:24:57 10° SSW 14:30:29 24° SSE 14:35:43 10° ESE daylight
29 Jan - 16:10:30 10° WSW 16:16:58 39° S 16:22:45 10° ESE daylight
29 Jan - 17:57:26 10° WSW 18:03:31 38° S 18:08:51 10° ESE visible
29 Jan - 19:45:12 10° WSW 19:49:37 21° SSW 19:53:36 10° SSE visible
30 Jan - 14:01:02 10° SSW 14:06:40 25° SSE 14:12:01 10° ESE daylight
30 Jan - 15:46:35 10° WSW 15:53:09 40° S 15:59:06 10° ESE daylight
30 Jan - 17:33:29 10° WSW 17:39:45 39° S 17:45:15 10° ESE visible
30 Jan - 19:21:15 10° WSW 19:25:54 22° SSW 19:30:04 10° SSE visible
